Location: ????????
(55.7667°N, 37.4833°E)
Time: 08:08:56
(UTC+00:00)

Landsat 4 - Pass Details

Date: 19 May 2025
Orbit: 353 x 361 km, 98.2° (Epoch: 23 June)

Event Time Altitude Azimuth Distance (km) Brightness Sun altitude
Exits shadow 21:19:39 17° 121° (ESE) 1,038 4.9 -14.3°
Maximum altitude 21:21:24 32° 66° (ENE) 670 4.5 -14.3°
Drops below altitude 10° 21:24:05 10° 1° (N) 1,390 7.3 -14.3°
Enters shadow 22:16:09 -71° 166° (SSE) 12,456 10.6 -13.5°
